Terminal Aerodrome Forecast
Issued by NWS Tallahassee, FL

Home | Current Version | Previous Version | Text Only | Print | Product List | Glossary On
Versions: 1 2 3 4 5 6 7 8 9 10 11 12 13
744
FTUS42 KTAE 231338 AAA
TAFTLH
TAF AMD
KTLH 231338Z 2314/2412 18003KT P6SM SCT010
     FM231700 22010G20KT P6SM SCT025 BKN040
     FM232200 25010G20KT 3SM TSRA BKN025CB
     FM240100 29006KT P6SM BKN040=

USA.gov is the U.S. government's official web portal to all federal, state and local government web resources and services.